OpenBCM V1.13 (Linux)

Packet Radio Mailbox

DB0FHN

[JN59NK Nuernberg]

 Login: GUEST





  
I6KZR  > KEPLER   04.03.03 23:19l 317 Lines 15752 Bytes #999 (0) @ WW
BID : 27260_IK6WID
Read: DB0FHN GUEST
Subj: 2L Keplerian Elements #063
Path: DB0FHN<DB0ZWI<DB0CHZ<DB0ERF<DB0FBB<DB0GOS<DB0ACC<ON0RAT<ON5VL<ON0BEL<
      IK6PYS<IK6PYS<I6ZLO<IK6WID
Sent: 030304/2057Z @:IK6WID.#AP.IMAR.ITA.EU #:27260 [MONTE URANO]  FBB7.00i
From: I6KZR@IK6WID.#AP.IMAR.ITA.EU
To  : KEPLER@WW


OSCAR 7
1 07530U 74089B   03062.14151959 -.00000029  00000-0  10000-3 0  1537
2 07530 101.7590 109.8095 0012233  54.3547 305.8660 12.53564661294766
GOES 2
1 10061U 77048A   03062.76944659 -.00000220  00000-0  00000+0 0  1069
2 10061  14.1377  13.3235 0012624 200.8418 159.1157  0.99396945 38967
GOES 3
1 10953U 78062A   03060.90265955 -.00000111  00000-0  00000+0 0  9398
2 10953  13.4156  17.1454 0005841 343.6642  16.3376  1.00279493 43613
GOES 6
1 14050U 83041A   03062.00841580  .00000020  00000-0  10000-3 0  4275
2 14050  10.4180  35.4806 0004593 345.1253  14.9284  1.00306627130766
OSCAR 10
1 14129U 83058B   03053.29347507 -.00000135 +00000-0 +10000-3 0 09207
2 14129 025.9661 163.6642 6025305 329.8586 006.1874 02.05867335120141
OSCAR 11 (UoSAT 2)
1 14781U 84021B   03063.21883261  .00001033  00000-0  15036-3 0   861
2 14781  98.1193  37.2481 0009444 159.7710 200.3876 14.78028589 18254
NOAA 10
1 16969U 86073A   03062.94004773  .00000122  00000-0  68180-4 0  6843
2 16969  98.7308  57.0232 0013419  50.3369 309.8994 14.27068764855815
GOES 7
1 17561U 87022A   03062.47831763  .00000033  00000-0  10000-3 0  8741
2 17561   7.6258  55.4682 0005432 264.7527 193.2055  1.00256385 41872
COSMOS 1861
1 18129U 87054A   03063.21405773  .00000047  00000-0  34755-4 0  2099
2 18129  82.9269 136.4737 0011033 181.7289 178.3827 13.72702110786386
EUTELSAT 1-F4 (ECS 4)
1 18351U 87078B   03059.07635020  .00000013  00000-0  00000+0 0   442
2 18351   7.2160  58.6101 0006917 200.9393 159.1775  0.98687115 42776
NOAA 11
1 19531U 88089A   03062.95116295  .00000138  00000-0  95134-4 0  5210
2 19531  98.8997 144.2882 0011882 160.8217 199.3405 14.14543314744696
ASTRA 1A
1 19688U 88109B   03061.76933815  .00000019  00000-0  10000-3 0  5833
2 19688   1.4247  94.7158 0003492 232.2589 115.2778  1.00269923 32317
OSCAR 14 (UOSAT 3)
1 20437U 90005B   03062.64178867  .00000075  00000-0  44031-4 0  1774
2 20437  98.2686 105.6286 0010894 158.1862 201.9785 14.31241365684367
OSCAR 15 (UOSAT 4)
1 20438U 90005C   03061.62147120 +.00000045 +00000-0 +33097-4 0 07953
2 20438 098.2459 093.7260 0009650 172.4332 187.6999 14.30200580683880
OSCAR 16 (PACSAT)
1 20439U 90005D   03062.23515547  .00000113  00000-0  58043-4 0  8599
2 20439  98.3149 117.0003 0011016 166.4736 193.6749 14.31476064684348
OSCAR 17 (DOVE)
1 20440U 90005E   03061.66253153 +.00000069 +00000-0 +41290-4 0 07426
2 20440 098.3367 120.3738 0010948 166.8326 193.3141 14.31753899684332
OSCAR 18 (WEBERSAT)
1 20441U 90005F   03063.19374879  .00000099  00000-0  52750-4 0   256
2 20441  98.3312 121.0452 0011766 163.5849 196.5717 14.31557829684538
OSCAR 19 (LUSAT)
1 20442U 90005G   03063.17061677  .00000097  00000-0  51787-4 0  9766
2 20442  98.3447 124.0716 0011834 162.8286 197.3298 14.31721185684583
JAS 1B (FUJI 2)
1 20480U 90013C   03061.94088194 +.00000004 +00000-0 +86973-4 0 04693
2 20480 099.0473 022.3574 0540399 335.8831 021.7795 12.83330887612106
HST
1 20580U 90037B   03063.15486111  .00003528  00000-0  27941-3 0  3463
2 20580  28.4679 309.8150 0003770  58.2666  58.5225 14.97875342504678
EUTELSAT 2-F1
1 20777U 90079B   03058.86735716 -.00000116  00000-0  10000-3 0   407
2 20777   3.5291  84.4541 0003426 323.2557 137.7336  1.00272316 26193
FENGYUN 1B
1 20788U 90081A   03063.16329474  .00000284  00000-0  21445-3 0  8959
2 20788  99.0271  45.2115 0016106 189.8540 170.2312 14.02142084639440
EUTELSAT 2-F2
1 21056U 91003B   03058.89572918  .00000102  00000-0  10000-3 0  6211
2 21056   2.7523  87.8292 0003750 291.4980 148.8290  1.00271203 31977
INFORMATOR 1
1 21087U 91006A   03061.71158518 +.00000060 +00000-0 +47311-4 0 06140
2 21087 082.9429 308.4158 0033799 215.1315 144.7608 13.74927710606555
COSMOS 2123
1 21089U 91007A   03061.84382724 +.00000064 +00000-0 +51686-4 0 04978
2 21089 082.9240 172.2747 0027616 252.2517 107.5623 13.74405557605470
ASTRA 1B
1 21139U 91015A   03057.00000000  .00000104  00000-0  10000-3 0  1628
2 21139   0.0122 319.8851 0002995  65.1991 149.4912  1.00273184 32263
METEOSAT 5 (MOP 2)
1 21140U 91015B   03060.09077436  .00000002  00000-0  10000-3 0  7410
2 21140   5.6529  69.8729 0000430 309.0749 235.1341  1.00276557 46155
NOAA 12
1 21263U 91032A   03062.96417438  .00000213  00000-0  10945-3 0  9901
2 21263  98.6278  52.3667 0012959 347.3687  12.7165 14.25088801613121
OSCAR 22 (UoSAT 5)
1 21575U 91050B   03062.85672073  .00000221  00000-0  84521-4 0  7395
2 21575  98.1418  54.3089 0008518  91.4668 268.7496 14.39162392610197
METEOR 3-5
1 21655U 91056A   03061.98156651 +.00000051 +00000-0 +10000-3 0 05515
2 21655 082.5541 030.0875 0013151 162.6828 197.4745 13.16980622555115
UARS
1 21701U 91063B   03063.06582094  .00000683  00000-0  69386-4 0  8381
2 21701  56.9830 337.4216 0004109 108.4659 251.6917 15.02883253627741
EUTELSAT 2-F3
1 21803U 91083A   03060.91610534  .00000112  00000-0  10000-3 0  5256
2 21803   2.6229  89.0106 0005211 269.6113 152.0968  1.00272029 37114
INMARSAT 2-F3
1 21814U 91084B   03061.52426777  .00000096  00000-0  10000-3 0  6264
2 21814   1.7690  58.5928 0002576 287.6675 220.3502  1.00274647 41010
INMARSAT 2-F4
1 21940U 92021B   03062.44518345 -.00000365  00000-0  10000-3 0  5765
2 21940   2.3916  20.0078 0002025 329.0460  81.0054  1.00267465 39819
EUTELSAT 2-F4
1 22028U 92041B   03057.90296856 -.00000117  00000-0  10000-3 0  3336
2 22028   1.7379  92.3742 0006202 237.6864 139.0226  1.00271809 31865
OSCAR 23 (KITSAT 1)
1 22077U 92052B   03061.85112314 -.00000037 +00000-0 +10000-3 0 01842
2 22077 066.0863 100.0076 0015748 270.7019 089.2195 12.86408921495883
ASTRA 1C
1 22653U 93031A   03057.00000000  .00000104  00000-0  10000-3 0  7895
2 22653   0.0122 319.8851 0002995  65.1991 149.5045  1.00273184 30968
METEOR 2-21
1 22782U 93055A   03062.55205908 -.00000016  00000-0 -27976-4 0  5325
2 22782  82.5482 204.5965 0021218 311.5277  48.4056 13.83532554479885
KITSAT B
1 22825U 93061C   03063.54687219  .00000099  00000-0  55281-4 0  5003
2 22825  98.2742  92.5313 0007670 213.7343 146.3357 14.28947131491877
POSAT 1
1 22826U 93061D   03062.52480318  .00000095  00000-0  53523-4 0  3193
2 22826  98.2741  92.6822 0008045 218.3102 141.7524 14.29170157491775
ITAMSAT
1 22828U 93061F   03063.13198654  .00000072  00000-0  44003-4 0  4393
2 22828  98.2708  93.5234 0009342 193.3634 166.7302 14.29511622460065
EYESAT A
1 22829U 93061G   03062.64883027  .00000134  00000-0  68030-4 0  4647
2 22829  98.2715  93.6764 0009178 195.1892 164.9016 14.29773759491928
METEOSAT 6
1 22912U 93073B   03062.86575811  .00000050  00000-0  00000+0 0  7048
2 22912   2.7109  82.5089 0001282 176.2311 223.4226  1.00269343 32434
GOES 8
1 23051U 94022A   03061.25548983 -.00000268  00000-0  00000+0 0  6300
2 23051   0.3261 102.5292 0001000 283.9129 150.5436  1.00273615 39923
ASTRA 1D
1 23331U 94070A   03061.83053825  .00000123  00000-0  10000-3 0  8221
2 23331   0.0965 256.2527 0003630  97.0702 129.9835  1.00273165 30993
RADIO ROSTO
1 23439U 94085A   03063.21825329 -.00000034  00000-0  22561-3 0  6850
2 23439  64.8177  19.4069 0146611 112.4777 249.1743 11.27547783337135
NOAA 14
1 23455U 94089A   03062.99610416  .00000160  00000-0  11008-3 0  5431
2 23455  99.1862  81.9166 0009299 187.3820 172.7215 14.13302029421372
HIMAWARI 5 (GMS 5)
1 23522U 95011B   03062.12995032 -.00000294  00000-0  00000+0 0  1281
2 23522   1.7957  83.3198 0000216 170.4820  93.7277  1.00272835 29013
HOT BIRD 1
1 23537U 95016B   03055.93642088  .00000074  00000-0  10000-3 0  5388
2 23537   0.0930 158.4148 0007489 128.2319 217.9136  1.00274434 29037
GOES 9
1 23581U 95025A   03061.45046527  .00000083  00000-0  00000+0 0  5416
2 23581   0.2432 277.5068 0012002 246.9177 351.8437  1.00062466 28486
INMARSAT 3-F1
1 23839U 96020A   03059.73801147 -.00000004 +00000-0 +00000-0 0 08792
2 23839 000.0719 325.4688 0013901 236.0688 286.2920 01.00269917025312
ASTRA 1F
1 23842U 96021A   03057.00000000  .00000104  00000-0  10000-3 0  5616
2 23842   0.0122 319.8851 0002995  65.1991 149.5643  1.00273184 25192
JAS 2
1 24278U 96046B   03062.48433152  .00000013  00000-0  48282-4 0  5649
2 24278  98.5388 211.9519 0350444 182.8941 177.0174 13.52873390323058
UNAMSAT
1 24305U 96052B   03061.94554274 +.00000205 +00000-0 +20364-3 0 06785
2 24305 082.9287 253.6232 0029246 165.8541 194.3425 13.73453698325184
INMARSAT 3-F2
1 24307U 96053A   03059.95475109 -.00000142  00000-0  00000+0 0   882
2 24307   0.0572 349.4103 0004964   5.2889 131.8358  1.00273557 23724
HOT BIRD 2
1 24665U 96067A   03054.87288413  .00000076  00000-0  10000-3 0  3445
2 24665   0.0674 252.7220 0007661  70.4027 157.3662  1.00270188 23318
INMARSAT 3-F3
1 24674U 96070A   03062.55575580  .00000026  00000-0  10000-3 0    01
2 24674   0.0527 311.9969 0003363   1.9125 225.1343  1.00274178 22712
GOES 10
1 24786U 97019A   03062.37026740  .00000076  00000-0  00000+0 0  5698
2 24786   0.1672 105.0532 0002152 268.2321 145.3423  1.00263846 21460
INMARSAT 3-F4
1 24819U 97027A   03060.08707047 -.00000304 +00000-0 +10000-3 0 08925
2 24819 000.0656 302.0986 0004675 049.4653 144.2642 01.00272733021117
FENGYUN 2A
1 24834U 97029A   03060.84354332 -.00000213  00000-0  00000+0 0  9726
2 24834   2.6000  88.3287 0001093 244.3172 216.2693  1.00279478 20956
HOT BIRD 3
1 24931U 97049A   03054.87288413  .00000075  00000-0  10000-3 0  4284
2 24931   0.1004 298.5607 0010424  36.2408 145.6862  1.00270404 20133
METEOSAT 7
1 24932U 97049B   03058.89532175 -.00000019  00000-0  00000+0 0  2550
2 24932   0.2424  73.4343 0001886 223.2414 183.5527  1.00269814 20115
